Weather History for KPDK - April, 2013

Change the Weather History Date:

Tuesday, April 23, 2013

  Actual Average Record
Temperature  
Mean Temperature 60 °F 63 °F  
Max Temperature 73 °F 75 °F 86 °F (1999)
Min Temperature 47 °F 52 °F 43 °F (2012)
Degree Days  
Heating Degree Days 5 3  
Month to date heating degree days 133 127  
Since 1 July heating degree days 155 2896  
Cooling Degree Days 0 2  
Month to date cooling degree days 32 27  
Year to date cooling degree days 32 34  
Growing Degree Days 9 (Base 50)    
Moisture  
Dew Point 42 °F    
Average Humidity 57    
Maximum Humidity 77    
Minimum Humidity 37    
Precipitation  
Precipitation 0.00 in 0.15 in 0.19 in (2009)
Month to date precipitation 2.53 2.70  
Year to date precipitation 2.96 17.49  
Snow  
Snow 0.00 in - - ()
Month to date snowfall 0.0  
Since 1 July snowfall 0.0  
Snow Depth 0.00 in    
Sea Level Pressure  
Sea Level Pressure 30.17 in    
Wind  
Wind Speed 4 mph (SE)    
Max Wind Speed 10 mph    
Max Gust Speed 16 mph    
Visibility 10 miles    
Events      
T = Trace of Precipitation, MM = Missing Value Source: NWS Daily Summary

Daily Weather History Graph

Daily Weather History Graph

Search for Another Location

Airport or City:

Trip Planner

Search our weather history database for the weather conditions in past years. The results will help you decide how hot, cold, wet, or windy it might be!

Date:

Astronomy

Apr. 23, 2013 Rise Set
Actual Time 6:56 AM EDT 8:14 PM EDT
Civil Twilight 6:30 AM EDT 8:40 PM EDT
Nautical Twilight 5:59 AM EDT 9:12 PM EDT
Astronomical Twilight 5:26 AM EDT 9:44 PM EDT
Moon 6:13 PM EDT (4/23) 5:17 AM EDT (4/23)
Length of Visible Light 14h 10m
Length of Day
13h 18m
Waxing Gibbous, 94% of the Moon is Illuminated
Apr 23
Waxing Gibbous
Apr 25
Full
May 2
Last Quarter
May 9
New
May 18
First Quarter

Hourly Weather History & Observations

Time (EDT) Temp. Dew Point Humidity Pressure Visibility Wind Dir Wind Speed Gust Speed Precip Events Conditions
12:53 AM 57.0 °F 37.9 °F 49% 30.21 in 10.0 mi East 3.5 mph - N/A   Overcast
1:53 AM 55.0 °F 36.0 °F 49% 30.20 in 10.0 mi Calm Calm - N/A   Mostly Cloudy
2:53 AM 53.1 °F 36.0 °F 52% 30.19 in 10.0 mi East 3.5 mph - N/A   Partly Cloudy
3:53 AM 51.1 °F 35.1 °F 54% 30.19 in 10.0 mi ENE 3.5 mph - N/A   Clear
4:53 AM 50.0 °F 35.1 °F 57% 30.19 in 10.0 mi Calm Calm - N/A   Clear
5:53 AM 48.0 °F 36.0 °F 63% 30.21 in 10.0 mi Calm Calm - N/A   Partly Cloudy
6:53 AM 46.9 °F 36.0 °F 66% 30.20 in 10.0 mi East 4.6 mph - N/A   Clear
7:53 AM 48.0 °F 37.0 °F 66% 30.23 in 10.0 mi Variable 3.5 mph - N/A   Clear
8:53 AM 52.0 °F 37.9 °F 59% 30.24 in 10.0 mi Variable 3.5 mph - N/A   Clear
9:53 AM 55.9 °F 39.9 °F 55% 30.23 in 10.0 mi Variable 3.5 mph - N/A   Clear
10:53 AM 60.1 °F 41.0 °F 49% 30.24 in 10.0 mi ENE 4.6 mph - N/A   Clear
11:53 AM 62.1 °F 41.0 °F 46% 30.22 in 10.0 mi Calm Calm - N/A   Clear
12:53 PM 66.0 °F 42.1 °F 42% 30.20 in 10.0 mi SSW 5.8 mph - N/A   Clear
1:53 PM 66.9 °F 43.0 °F 42% 30.17 in 10.0 mi South 3.5 mph - N/A   Clear
2:53 PM 69.1 °F 42.1 °F 38% 30.15 in 10.0 mi Variable 3.5 mph - N/A   Clear
3:53 PM 71.1 °F 45.0 °F 39% 30.12 in 10.0 mi SSW 5.8 mph - N/A   Clear
4:53 PM 72.0 °F 46.0 °F 40% 30.10 in 10.0 mi SSE 6.9 mph - N/A   Clear
5:53 PM 72.0 °F 46.0 °F 40% 30.09 in 10.0 mi South 9.2 mph - N/A   Clear
6:53 PM 70.0 °F 46.0 °F 42% 30.09 in 10.0 mi South 6.9 mph - N/A   Clear
7:53 PM 68.0 °F 46.9 °F 47% 30.09 in 10.0 mi South 6.9 mph - N/A   Clear
8:53 PM 64.9 °F 48.0 °F 54% 30.09 in 10.0 mi SSE 3.5 mph - N/A   Clear
9:53 PM 63.0 °F 48.9 °F 60% 30.11 in 10.0 mi SE 3.5 mph - N/A   Clear
10:53 PM 61.0 °F 48.9 °F 64% 30.12 in 10.0 mi Calm Calm - N/A   Clear
11:53 PM 55.9 °F 48.9 °F 77% 30.12 in 10.0 mi Calm Calm - N/A   Clear